Theta_e
329 328 323 323 327 327 333 333 323 327 329 327 327 329 331 334 334 337 333 333 333 330 329 327 326 326 325 324 324 324 325 325 328 329 326 329 328 328 324 327 329 326 331 331 331 331 330 329 327
330 327 322 325 332 335 336 329 325 329 333 329 330 332 333 336 333 333 332 333 331 329 327 327 325 326 324 324 323 322 322 323 324 327 328 328 327 324 328 328 327 326 329 330 330 329 328 327 324
328 325 326 327 330 337 336 329 329 334 332 332 333 332 334 334 332 331 332 332 328 327 327 326 325 325 324 323 322 323 322 322 322 324 327 328 326 321 326 326 322 323 326 326 327 326 326 325 324
329 327 323 328 331 331 330 328 334 335 334 332 333 336 331 331 331 332 331 329 327 327 327 325 325 325 323 323 323 322 321 321 321 322 323 323 323 323 326 325 322 321 324 323 324 324 323 323 321
328 329 329 329 328 326 328 329 334 336 335 334 331 334 333 331 331 331 330 327 327 327 327 326 324 324 323 323 322 321 321 321 321 321 321 321 321 322 324 322 322 320 322 323 321 320 319 319 318
330 330 330 332 327 326 329 333 334 335 334 333 333 333 333 331 332 331 328 327 327 326 326 325 323 321 320 317 316 317 319 318 316 315 314 316 318 318 319 322 320 320 320 320 318 316 315 315 315
330 330 331 330 329 326 331 331 335 336 335 334 331 333 332 331 332 329 327 327 326 326 325 324 322 317 315 314 313 314 314 314 313 312 312 312 314 317 317 320 320 319 319 318 316 315 314 313 312
329 328 332 330 329 329 331 332 333 335 335 331 330 334 334 330 330 329 327 327 326 324 323 322 320 317 315 314 314 313 313 313 314 313 313 313 313 314 316 317 317 316 315 317 314 313 313 312 312
328 333 332 333 329 330 328 334 333 332 334 333 332 332 331 330 329 328 327 326 325 323 321 320 317 314 314 315 314 314 314 314 315 315 314 315 315 316 316 314 314 314 314 314 315 313 313 312 311
330 332 329 328 324 328 326 331 335 337 336 337 333 331 331 329 328 328 327 327 325 323 320 319 317 316 315 315 315 316 315 316 316 316 316 316 316 315 315 314 314 313 314 314 314 314 313 312 311
330 332 328 322 324 323 327 333 333 336 338 336 336 331 330 328 328 327 327 326 326 324 321 320 318 317 317 317 317 317 317 317 316 316 316 316 316 316 316 316 315 315 314 315 316 316 314 312 311
332 328 325 322 323 323 331 332 334 336 333 330 332 330 329 328 329 328 327 326 325 322 322 320 319 318 318 318 318 317 318 317 318 317 316 317 317 317 316 315 315 315 314 315 315 315 314 313 311
331 328 324 324 321 322 327 331 333 333 332 331 331 329 329 329 329 328 327 327 325 324 323 322 321 319 318 318 318 318 318 318 317 317 316 316 316 316 315 315 314 314 314 314 315 314 314 313 312
328 326 325 325 323 323 329 327 327 330 330 332 331 330 328 328 329 328 327 326 325 325 324 323 322 321 319 319 319 319 318 317 317 316 316 317 316 315 314 314 313 313 313 313 313 313 312 312 312
326 328 327 326 325 327 326 330 329 328 330 330 330 330 328 328 329 328 327 327 327 326 325 323 322 321 320 319 319 318 318 317 317 317 317 316 316 315 314 314 313 313 312 313 313 312 312 312 312
330 330 333 329 327 323 326 333 327 330 331 331 330 329 328 329 329 329 328 327 327 327 326 324 323 321 321 320 320 319 318 318 318 317 317 316 315 314 314 314 313 313 313 312 312 312 311 311 310
331 335 334 331 328 326 328 332 325 330 332 333 330 331 330 331 330 330 328 327 328 328 326 326 324 323 321 321 320 319 319 318 318 317 316 315 314 313 314 313 312 311 312 312 311 311 311 310 309
335 334 333 333 329 329 329 331 322 328 332 333 332 332 332 332 331 329 328 327 327 327 327 327 326 324 321 320 320 319 319 318 317 317 316 314 314 313 313 313 313 312 312 311 311 310 310 309 307
331 332 333 329 326 329 330 330 328 320 328 331 332 333 332 332 330 329 328 328 327 327 327 326 325 324 320 319 319 318 318 317 316 315 314 313 313 312 312 312 311 311 310 309 309 308 307 306 305
330 332 331 326 326 330 330 331 329 328 323 326 328 330 331 331 330 326 324 325 326 327 327 325 324 322 320 320 319 319 318 316 315 314 313 312 311 311 310 308 307 306 305 304 304 303 303 302 302
331 332 329 331 326 324 328 334 331 328 322 319 321 325 327 329 329 326 324 325 326 326 324 324 323 322 320 320 319 319 316 315 315 313 311 308 305 304 301 297 297 298 298 299 298 299 299 299 299
333 329 329 328 331 336 328 336 331 329 327 320 320 318 321 323 327 325 323 323 324 323 321 321 321 321 320 320 319 319 319 318 316 312 306 300 297 295 294 293 293 293 295 296 295 295 296 297 297
330 326 327 328 331 331 329 334 330 326 330 327 321 320 319 320 323 322 320 321 319 317 318 320 321 321 321 320 319 319 318 316 310 306 298 295 294 293 292 292 292 291 292 293 293 294 294 294 295
324 323 324 323 327 332 330 332 333 330 328 327 322 319 318 317 318 319 318 316 313 313 313 316 316 316 317 317 317 315 313 309 302 298 297 294 292 292 292 291 291 291 291 292 292 292 293 293 293
326 327 328 330 331 335 323 331 330 327 322 323 324 321 318 316 316 316 315 314 312 311 310 311 311 311 311 311 310 306 301 298 296 294 293 292 292 292 291 291 292 291 291 291 291 292 292 292 292
328 328 332 332 332 329 319 330 329 320 315 315 317 316 316 315 315 315 314 313 311 308 306 308 308 305 302 300 298 296 295 293 292 292 291 291 291 292 292 292 292 291 291 290 290 291 291 291 291
322 328 319 321 312 325 326 322 318 310 311 312 313 313 313 313 313 314 312 311 308 306 304 304 301 298 297 296 295 294 292 292 291 291 291 291 292 292 292 291 291 291 290 289 288 289 289 289 289
319 316 325 321 332 333 324 319 325 313 309 309 312 313 313 312 313 313 311 308 304 302 301 299 297 296 296 295 293 292 292 291 291 291 292 292 291 291 291 291 290 289 288 288 288 288 288 288 288
316 317 316 320 323 330 330 328 313 309 308 308 308 311 312 312 312 311 308 305 301 299 298 297 296 295 294 293 292 292 291 291 291 292 291 291 291 291 290 290 288 287 287 287 287 287 287 287 287
314 318 319 330 324 319 318 325 307 307 309 309 308 309 311 311 310 309 306 302 298 297 296 296 295 294 293 292 292 291 291 291 291 291 291 291 291 290 289 288 287 286 286 286 286 286 286 286 287
Wind_Speed
5 7 4 3 3 2 6 3 1 5 6 3 7 2 3 6 0 2 9 9 15 13 11 9 8 8 7 7 8 7 8 9 12 12 8 12 12 12 10 11 14 12 13 12 14 14 15 15 15
4 4 3 3 4 8 8 2 5 5 5 11 9 7 3 4 3 9 9 12 14 12 10 9 8 8 8 8 7 6 6 6 7 11 11 11 12 10 10 12 14 13 14 15 15 15 16 15 14
5 4 4 5 5 8 5 2 7 8 8 6 5 5 2 3 6 14 11 16 13 12 10 9 9 9 8 7 7 7 7 6 6 8 10 13 12 9 9 11 11 11 13 13 13 13 14 14 14
3 6 2 9 11 9 8 3 7 10 2 2 7 7 5 3 12 8 16 15 13 12 10 9 9 8 8 7 7 7 8 8 8 6 6 7 10 8 10 11 11 11 11 10 12 13 14 14 13
5 3 9 10 11 4 6 5 12 8 5 7 3 6 6 3 8 15 17 14 13 12 10 8 9 9 8 8 7 7 8 9 8 8 7 6 8 9 10 9 11 13 9 11 11 12 11 12 12
6 5 10 14 14 5 5 4 10 4 5 7 6 9 6 6 12 17 16 13 11 11 10 9 8 8 8 7 7 8 9 8 8 8 7 6 6 6 7 8 9 11 10 10 9 8 9 8 10
12 9 14 16 12 6 5 6 6 5 6 6 10 7 6 10 13 17 15 13 11 10 9 8 8 7 7 7 8 8 8 8 8 8 8 8 6 5 5 7 7 8 9 8 9 8 8 10 12
9 7 11 17 11 8 4 4 1 4 4 7 3 5 6 16 18 16 14 12 11 9 8 7 7 8 8 8 8 8 8 9 9 9 9 9 9 7 4 4 4 5 6 7 10 11 12 12 13
6 4 12 18 16 6 4 5 4 2 8 3 2 2 6 22 22 18 15 12 11 9 8 8 8 8 8 8 8 7 8 9 9 10 10 9 8 8 7 7 6 6 6 6 7 9 10 11 13
9 13 19 10 6 8 7 5 7 5 8 4 4 3 21 24 23 20 17 15 13 11 10 8 7 8 9 7 7 7 8 7 8 8 8 7 8 9 9 9 9 8 7 7 8 10 11 10 10
15 19 14 8 3 5 6 6 4 4 7 6 9 14 22 23 21 19 17 16 14 12 10 9 8 8 8 7 6 5 6 6 6 7 7 7 6 7 7 7 8 8 10 8 8 8 8 9 10
15 18 14 8 4 4 9 8 4 7 2 1 2 18 23 19 20 20 17 13 13 12 11 11 9 8 8 7 6 6 4 4 3 3 4 4 4 5 6 7 7 8 8 8 8 7 8 9 10
14 16 13 8 5 3 9 6 1 5 3 2 11 18 19 18 19 18 16 14 13 13 13 12 11 9 9 8 6 5 4 3 2 1 3 4 4 5 5 6 6 6 7 8 8 8 9 10 10
6 8 11 5 4 4 7 5 3 2 1 5 13 15 17 18 20 16 15 15 15 13 14 13 13 11 10 8 7 5 4 3 2 1 3 5 5 6 7 7 8 8 8 7 9 9 11 11 12
15 9 5 6 4 5 6 4 5 3 4 8 11 13 14 17 19 19 17 16 16 15 14 17 15 14 12 11 9 7 5 3 2 2 3 4 4 4 7 7 6 7 9 9 9 10 11 13 14
7 9 11 11 9 1 5 14 8 7 8 8 10 10 11 14 20 20 17 17 15 14 15 16 16 16 15 12 10 7 5 4 3 2 1 2 3 6 5 5 6 8 8 8 9 11 13 14 15
6 9 9 9 10 4 4 8 8 7 7 8 9 11 12 13 17 20 16 15 15 14 14 16 17 17 15 13 10 7 6 4 3 2 1 1 3 6 5 6 7 8 8 9 10 11 13 16 18
14 8 15 6 11 12 11 13 7 8 8 10 10 11 13 14 16 20 18 16 15 14 15 16 17 17 15 12 11 8 6 4 4 3 2 1 3 6 6 6 7 8 9 9 10 12 13 15 17
12 12 11 3 2 15 21 18 13 11 11 11 11 12 13 15 18 17 16 17 16 14 13 14 18 17 17 16 12 9 7 6 6 4 2 2 5 6 7 6 7 8 8 9 10 12 14 14 15
16 14 7 4 4 7 15 26 20 16 16 16 15 14 15 14 14 18 16 16 19 15 17 16 18 19 18 15 12 6 11 8 6 3 2 4 5 6 6 7 7 8 9 10 11 12 14 14 14
9 15 7 6 5 1 5 15 22 16 16 15 15 14 14 16 16 15 17 18 17 16 16 20 21 19 17 15 13 9 8 6 5 3 1 3 3 4 5 7 8 9 9 9 10 11 11 14 16
5 8 12 13 6 3 7 4 11 17 18 18 18 17 17 17 16 16 19 18 17 15 15 20 20 19 16 15 12 11 9 7 6 4 2 0 2 3 6 8 8 9 9 10 10 10 11 11 15
3 5 11 8 7 5 6 3 5 5 15 21 21 21 19 19 18 17 18 17 15 14 15 20 19 16 15 14 11 11 8 7 7 4 3 1 3 4 6 8 10 11 12 13 13 13 13 13 14
11 9 6 4 3 5 11 9 5 8 16 15 17 18 18 16 14 15 18 17 16 15 15 18 16 15 13 13 12 8 9 8 7 4 2 2 3 4 8 10 12 14 15 15 16 17 15 15 16
5 11 2 2 3 4 2 9 11 8 10 14 12 16 18 16 16 16 15 20 19 18 17 17 15 14 14 13 12 11 10 9 7 5 4 3 4 7 10 14 16 17 18 17 16 17 16 17 18
13 11 5 6 5 3 2 6 6 4 7 6 7 6 11 15 15 16 18 20 19 18 18 20 19 17 16 15 14 13 11 9 8 6 4 4 6 9 13 16 18 18 19 19 18 17 17 17 18
3 5 4 5 2 1 5 5 14 5 9 7 4 6 12 15 17 17 19 20 20 20 23 24 20 18 16 15 14 12 11 9 7 5 3 4 7 11 15 17 19 20 19 19 19 16 18 18 19
2 5 3 1 6 5 3 4 3 2 5 3 7 9 11 13 16 15 17 19 18 23 26 22 20 19 17 15 13 12 11 8 5 3 3 6 9 13 16 18 19 20 20 19 19 17 18 19 20
2 3 3 3 1 2 2 1 1 6 9 11 9 9 11 13 16 15 17 18 17 20 24 23 20 19 18 16 15 12 10 7 4 1 3 6 10 13 16 18 20 20 20 20 19 18 18 19 20
2 4 4 3 4 1 2 2 0 6 8 8 10 7 10 13 14 14 18 19 19 22 23 22 21 20 19 17 15 12 9 6 3 0 3 8 12 14 16 19 20 19 19 19 17 18 19 20 22
Wind_Direction
282 242 296 65 228 56 273 235 114 150 160 93 123 179 131 34 294 10 129 149 142 138 134 125 123 112 103 95 92 88 62 64 47 55 47 53 58 50 37 43 53 45 57 54 50 56 54 49 45
290 282 272 131 198 204 251 220 194 142 116 124 105 116 113 95 52 116 137 147 141 134 128 122 123 111 104 97 90 81 86 92 57 53 54 59 57 51 53 56 50 43 40 48 47 48 49 44 42
279 253 218 210 218 196 262 299 129 119 137 149 120 52 87 92 127 142 143 147 139 129 123 122 119 115 109 98 87 80 85 94 97 63 59 55 51 48 58 56 39 42 36 42 41 40 43 39 35
266 205 174 223 204 190 243 1 137 144 154 126 126 96 101 33 138 155 146 147 137 127 122 121 121 119 110 104 92 85 79 79 74 86 73 56 63 49 63 58 48 40 40 41 43 44 40 39 34
247 256 204 217 214 250 243 292 163 165 145 139 162 127 109 94 126 142 149 149 139 131 125 120 126 123 118 107 101 92 84 81 78 71 77 67 73 58 51 51 53 40 51 52 45 36 31 25 16
208 246 212 207 204 156 250 168 171 172 155 137 121 128 132 139 152 152 151 147 140 135 129 126 133 131 121 107 96 93 90 83 78 73 70 74 86 85 64 57 50 54 48 37 26 7 1 5 3
231 215 221 211 222 207 186 160 180 176 164 162 138 136 122 170 164 156 151 147 142 139 135 132 126 125 114 102 98 99 93 85 81 75 73 69 79 93 87 71 59 48 47 32 13 7 9 9 6
227 215 215 214 216 228 111 185 122 195 146 121 177 168 169 177 162 158 152 149 149 145 141 138 131 127 119 112 106 101 92 89 83 75 73 71 68 73 67 48 24 20 17 29 12 7 4 2 360
194 211 212 216 209 182 164 190 139 105 143 169 152 166 143 156 157 157 156 159 161 158 155 149 141 137 130 124 117 100 94 90 84 76 72 64 63 56 45 35 20 9 8 7 3 356 351 349 352
193 205 205 197 192 178 169 178 161 169 163 171 148 100 142 152 162 167 172 174 176 173 169 158 147 146 141 134 126 113 104 99 90 82 73 63 60 53 47 35 22 11 3 355 347 346 349 360 352
200 214 195 173 157 196 158 138 168 169 205 197 187 162 157 160 171 175 182 181 182 177 174 167 159 156 151 147 138 130 119 108 95 81 73 62 54 44 36 28 21 14 2 1 353 344 343 344 347
192 212 185 148 148 195 165 132 171 201 54 353 178 166 163 169 178 183 185 181 178 182 181 178 170 166 164 156 154 158 149 132 122 88 64 53 44 39 33 26 20 13 1 359 352 339 330 327 329
208 188 183 131 106 240 151 121 108 212 355 266 154 163 172 175 184 188 189 189 186 188 187 186 182 180 177 170 172 172 174 174 186 70 25 34 25 22 20 15 15 10 2 353 344 334 328 324 322
144 160 152 127 125 245 171 115 126 171 57 138 161 169 177 184 188 188 192 191 195 194 193 189 192 189 189 186 187 188 197 205 227 325 357 4 2 5 9 1 358 355 352 341 333 328 324 321 318
134 126 137 164 173 209 151 131 208 134 161 164 173 174 183 193 193 197 195 198 199 200 195 201 196 198 200 201 204 211 224 239 261 316 348 356 12 20 11 0 350 347 349 342 331 326 322 320 320
124 149 180 182 190 206 243 190 181 168 172 173 179 178 188 202 201 200 200 205 202 199 202 207 208 212 211 211 214 218 230 241 257 278 318 25 29 11 9 358 348 345 341 336 332 330 325 324 323
186 184 172 171 209 153 205 210 171 174 178 183 192 189 192 201 205 204 209 209 206 205 211 212 214 216 217 219 220 219 228 236 238 220 210 351 9 3 354 352 341 333 333 334 335 331 325 323 322
170 148 188 161 196 206 202 234 183 191 196 201 199 191 195 201 210 205 209 215 214 215 220 224 219 216 211 213 214 217 219 217 199 198 200 313 353 337 340 341 339 339 336 333 334 329 326 324 323
156 144 145 124 213 204 222 226 212 195 206 208 210 201 201 210 209 207 205 212 213 214 221 221 209 204 201 199 196 201 197 189 170 168 172 328 315 325 336 345 342 342 339 337 338 334 327 328 328
150 154 137 92 144 188 220 229 225 225 224 220 215 211 209 209 207 205 203 208 212 211 214 206 198 196 198 198 187 181 171 166 177 169 263 288 315 323 336 351 351 349 343 341 343 340 331 328 341
158 164 156 142 125 154 215 229 230 225 223 221 226 227 216 207 206 200 196 201 198 199 193 192 190 191 189 191 191 173 165 157 176 182 244 310 347 358 4 360 356 350 348 339 341 341 341 326 329
141 192 160 133 155 221 217 275 228 228 220 217 215 217 217 210 207 200 194 189 188 183 180 185 186 186 190 195 188 187 196 182 197 184 204 225 27 10 3 1 357 351 348 346 341 336 332 322 315
97 133 135 156 178 189 176 252 239 231 243 236 220 215 214 210 201 191 188 181 172 171 174 183 183 184 189 194 197 196 190 172 172 170 153 78 7 11 11 1 356 349 346 338 335 334 329 321 311
129 86 63 79 120 237 190 200 242 199 229 241 230 223 217 203 198 188 173 166 165 171 172 176 174 175 178 182 185 177 169 162 143 144 126 77 41 17 0 354 347 343 339 336 333 327 319 311 306
168 126 113 144 201 231 49 202 249 225 229 232 243 231 219 200 187 178 169 173 171 173 171 172 172 169 170 168 163 155 150 144 143 146 134 81 21 359 349 346 342 339 336 333 327 319 313 311 306
166 175 175 184 199 159 97 227 247 239 285 290 265 233 198 200 186 177 177 176 173 172 169 174 170 164 162 155 151 150 148 145 143 134 102 37 0 348 344 340 338 337 336 334 330 321 317 313 307
190 199 24 100 45 149 193 232 275 279 259 248 248 182 188 191 185 179 177 177 173 169 173 172 162 164 161 155 153 151 146 147 135 116 68 7 348 342 339 338 336 336 337 335 330 322 319 315 311
70 119 104 334 165 221 195 260 243 12 330 289 239 224 200 188 187 180 178 175 172 172 170 167 169 169 164 161 158 153 153 145 137 105 21 350 342 339 337 337 337 336 336 334 330 325 321 318 318
84 119 70 105 255 249 283 181 272 296 302 290 272 231 206 190 185 178 175 172 166 170 170 167 172 171 168 168 161 160 159 146 146 110 346 342 340 338 339 338 337 335 335 334 332 328 325 325 324
94 149 169 176 184 246 324 268 176 304 306 298 286 242 200 190 180 176 171 165 162 168 172 174 176 176 174 168 166 166 158 163 174 221 338 345 344 344 342 340 336 335 337 338 336 335 333 330 328